Location: Olsztyn
(53.7767°N, 20.4765°E)
Time: 02:09:05
(UTC+01:00)

Envisat - Visible Passes

Search period start: 27 November 2022 00:00
Search period end: 07 December 2022 00:00
Orbit: 763 x 765 km, 98.2° (Epoch: 26 November)

Date Brightness Start Highest point End Pass type
(mag) Time Alt. Az. Time Alt. Az. Time Alt. Az.
27 Nov 5.7 02:26:19 10° NE 02:28:28 14° ENE 02:28:28 14° ENE visible
27 Nov 3.0 04:03:43 10° NNE 04:08:38 76° ENE 04:08:38 76° ENE visible
27 Nov 4.1 05:43:29 10° N 05:47:21 22° NW 05:48:48 20° W visible
28 Nov 4.2 03:26:53 10° NNE 03:30:59 38° ENE 03:30:59 38° ENE visible
28 Nov 3.4 05:06:01 10° N 05:10:42 38° WNW 05:11:09 37° WNW visible
28 Nov 5.9 16:29:42 10° WSW 16:32:37 15° W 16:35:32 10° NW visible
29 Nov 5.3 02:50:27 10° NE 02:53:21 21° ENE 02:53:21 21° ENE visible
29 Nov 2.9 04:28:48 10° NNE 04:33:31 67° NW 04:33:31 67° NW visible
29 Nov 4.5 06:09:05 10° NNW 06:12:04 16° NW 06:13:41 14° WNW visible
30 Nov 6.0 02:15:18 10° ENE 02:15:43 11° ENE 02:15:43 11° ENE visible
30 Nov 3.6 03:51:47 10° NNE 03:55:54 52° NE 03:55:54 52° NE visible
30 Nov 3.9 05:31:21 10° N 05:35:32 26° WNW 05:36:03 26° WNW visible
01 Dec 4.8 03:15:04 10° NNE 03:18:16 29° ENE 03:18:16 29° ENE visible
01 Dec 3.3 04:53:59 10° N 04:58:26 45° NW 04:58:26 45° NW visible
01 Dec 4.8 06:35:17 10° NNW 06:36:42 11° NW 06:38:05 10° WNW visible
01 Dec 5.7 16:16:58 10° SW 16:20:30 19° W 16:24:02 10° NW visible
02 Dec 5.6 02:38:50 10° NE 02:40:39 16° ENE 02:40:39 16° ENE visible
02 Dec 3.3 04:16:49 10° NNE 04:20:50 56° N 04:20:50 56° N visible
02 Dec 4.3 05:56:51 10° N 06:00:17 19° NW 06:01:00 18° WNW visible
03 Dec 4.2 03:39:53 10° NNE 03:43:13 37° NE 03:43:13 37° NE visible
03 Dec 3.7 05:19:15 10° N 05:23:24 31° NW 05:23:24 31° NW visible
03 Dec 6.1 16:44:09 10° WSW 16:45:55 12° W 16:47:43 10° WNW visible
04 Dec 5.2 03:03:16 10° NE 03:05:38 21° ENE 03:05:38 21° ENE visible
04 Dec 3.4 04:41:57 10° N 04:45:48 45° NNW 04:45:48 45° NNW visible
04 Dec 4.6 06:22:39 10° NNW 06:24:56 13° NW 06:25:58 12° WNW visible
04 Dec 5.6 16:04:25 10° SW 16:08:23 23° W 16:12:23 10° NW visible
05 Dec 5.9 02:27:21 10° NE 02:28:03 12° ENE 02:28:03 12° ENE visible
05 Dec 3.9 04:04:52 10° NNE 04:08:13 42° NNE 04:08:13 42° NNE visible
05 Dec 4.2 05:44:40 10° N 05:48:23 22° NW 05:48:23 22° NW visible
06 Dec 4.8 03:28:00 10° NNE 03:30:38 27° NE 03:30:38 27° NE visible
06 Dec 3.7 05:07:11 10° N 05:10:48 33° NW 05:10:48 33° NW visible
06 Dec 5.9 16:31:00 10° WSW 16:33:47 15° W 16:36:34 10° NW visible
